Flag for Germany Weather past 2 weeks in Karlsruhe, Baden-Württemberg, Germany

Now
70 °F

Sunny.


Feels Like: 70 °F
Forecast: 52 / 76 °F
Wind: 1 mph from North

Location: Karlsruhe - Baden Wurttemberg

Current Time: Sep 16, 2014 at 2:14:25 PM

Latest Report: Sep 16, 2014 at 1:50 PM


Visibility: 10 mi

Pressure: 29.98 "Hg

Humidity: 73%

Dew point: 61 °F

Location of KarlsruheLocation

Historic Weather in Karlsruhe — Graph

°F

Karlsruhe temperature yesterday

Maximum temperature yesterday: 72 °F (at 3:20 PM)
Minimum temperature yesterday: 54 °F (at 5:50 AM)
Average temperature yesterday: 63 °F

Past Weeks' High & Low Weather Summary

 TemperatureHumidityPressure
High81 °F (Sep 6, 5:20 PM)94% (Sep 4, 11:20 PM)30.18 "Hg (Sep 4, 11:20 PM)
Low50 °F (Sep 11, 4:50 AM)42% (Sep 6, 5:20 PM)29.86 "Hg (Sep 6, 5:20 PM)
Average63 °F76%30.03 "Hg
* Reported Sep 1 1:20 PM — Sep 16 1:20 PM, Karlsruhe, Weather by CustomWeather, © 2014

Note: Actual official high and low records may vary slightly from our data, if they occured in-between our weather recording intervals... More about our weather records

Advertising

Karlsruhe weather history for previous 24 hours

 ConditionsComfort  
Time TempWeatherWind HumidityBarometerVisibility
1:20 PM
Sep 16
66 °FClear.2 mph88%29.98 "Hg5 mi
12:50 PM64 °FFog.2 mph94%29.98 "Hg3 mi
12:20 PM61 °FFog.2 mph94%30.01 "Hg2 mi
11:50 AM59 °FFog.2 mph94%30.01 "Hg2 mi
11:20 AM59 °FFog.2 mph94%30.01 "Hg1 mi
10:50 AM59 °FFog.2 mph88%30.01 "Hg1 mi
10:20 AM57 °FFog.1 mph94%30.01 "Hg1 mi
9:50 AM57 °FFog.2 mph94%30.01 "Hg1 mi
9:20 AM57 °FFog.1 mph94%30.01 "Hg0 mi
8:50 AM55 °FFog.1 mph94%29.98 "Hg0 mi
8:20 AM55 °FFog.2 mph94%29.98 "Hg0 mi
7:50 AM55 °FFog.2 mph88%29.98 "Hg0 mi
7:20 AM54 °FFog.2 mph94%29.98 "Hg0 mi
6:50 AM55 °FFog.3 mph88%29.98 "Hg0 mi
6:20 AM54 °FFog.2 mph94%29.98 "Hg0 mi
5:50 AM54 °FFog.1 mph94%29.98 "Hg0 mi
5:20 AM55 °FFog.1 mph88%29.98 "Hg1 mi
4:50 AM55 °FFog.1 mph94%29.98 "Hg0 mi
11:50 PM
Sep 15
61 °FPassing clouds.2 mph88%29.98 "HgN/A
11:20 PM61 °FClear.3 mph83%29.98 "Hg10 mi
10:50 PM61 °FClear.3 mph88%29.98 "Hg10 mi
10:20 PM61 °FClear.2 mph88%29.98 "Hg10 mi
9:50 PM63 °FClear.2 mph83%29.95 "Hg10 mi
9:20 PM61 °FClear.7 mph83%29.95 "Hg10 mi
8:50 PM63 °FClear.8 mph83%29.95 "Hg10 mi
8:20 PM64 °FSunny.6 mph78%29.95 "Hg10 mi
7:50 PM66 °FSunny.7 mph73%29.95 "Hg10 mi
7:20 PM68 °FSunny.8 mph69%29.95 "Hg10 mi
6:50 PM70 °FSunny.7 mph64%29.95 "Hg10 mi
6:20 PM70 °FSunny.8 mph64%29.95 "Hg10 mi
5:50 PM70 °FSunny.8 mph64%29.95 "Hg10 mi
5:20 PM70 °FSunny.7 mph64%29.95 "Hg10 mi
4:50 PM72 °FPassing clouds.8 mph61%29.95 "HgN/A
4:20 PM72 °FPassing clouds.6 mph57%29.95 "HgN/A
3:50 PM72 °FPassing clouds.7 mph57%29.95 "HgN/A
3:20 PM72 °FPassing clouds.6 mph57%29.98 "HgN/A
2:50 PM70 °FPassing clouds.7 mph60%29.98 "HgN/A
2:20 PM70 °FScattered clouds.6 mph60%29.98 "HgN/A
Weather by CustomWeather, © 2014

See weather overviewHow to use our weather pages